Wetbulb
69.13 71.08 71.97 72.52 72.15 72.02 71.51 71.20 71.04 70.81 71.06 70.98 70.86 71.25 71.47 71.56 70.81 70.33 70.01 70.06 69.81 69.40 68.17 68.57 68.81 68.48 68.00 67.73 67.41 68.08 68.18 67.98 67.69 67.96 67.55 66.86 67.71 67.89 68.11 68.04 68.11 66.65 68.45
66.52 70.30 70.60 71.42 72.05 71.95 71.69 71.33 70.93 70.81 70.80 70.81 70.74 71.40 71.57 71.04 70.20 70.18 70.04 69.69 69.36 69.05 68.24 68.52 68.35 68.24 68.04 67.76 68.23 68.10 67.99 67.34 66.75 66.78 67.00 67.01 66.37 66.48 67.09 67.25 67.88 66.25 67.29
66.62 69.87 69.91 69.91 71.68 71.86 71.63 71.37 71.22 71.00 70.76 70.61 70.95 71.52 71.42 70.66 70.15 69.84 69.52 69.03 68.56 68.76 68.18 67.98 67.77 67.54 67.57 67.33 67.73 67.95 67.54 66.85 65.95 65.89 65.02 61.65 62.62 65.65 65.86 65.45 66.63 66.37 66.39
64.90 69.10 69.38 70.12 70.69 71.22 71.23 71.08 70.78 70.78 70.61 70.61 71.04 71.50 71.50 70.39 69.89 69.59 69.03 68.50 68.22 68.47 68.31 67.65 67.50 66.84 66.02 66.68 66.86 67.41 65.88 64.90 64.41 62.74 59.54 60.49 61.79 64.82 64.78 64.93 64.83 64.32 64.21
64.49 66.68 69.41 69.78 69.51 70.14 71.14 70.81 70.32 69.92 70.01 70.42 70.71 71.28 71.50 70.32 69.89 69.61 68.88 68.30 68.03 68.10 67.73 67.39 66.64 65.61 65.60 66.00 65.95 65.77 65.18 64.41 63.54 60.13 56.94 58.35 59.88 62.92 63.93 64.17 63.41 63.52 62.83
64.94 66.41 65.48 68.05 69.46 70.16 71.01 70.44 69.67 69.19 69.24 69.73 70.15 70.70 71.31 70.28 69.91 69.24 68.39 68.13 67.87 67.73 66.71 66.41 65.61 64.81 64.96 65.62 65.86 65.38 64.29 63.37 60.68 56.24 56.78 60.44 59.46 63.51 63.64 62.76 62.58 62.39 62.81
66.93 67.22 68.02 68.17 68.69 69.31 69.54 69.45 69.14 68.96 69.01 69.49 69.77 70.02 70.58 70.21 69.60 68.86 68.19 67.74 67.41 67.01 65.67 64.91 64.57 65.17 64.84 65.75 65.24 64.05 63.14 62.33 57.25 55.44 55.77 56.80 59.06 62.69 62.88 62.51 61.78 61.68 61.18
67.56 67.74 67.38 68.38 68.12 68.62 68.19 66.60 67.74 68.60 69.01 69.04 69.48 69.64 70.01 69.93 68.97 68.65 68.02 67.45 67.32 66.95 66.17 65.41 65.09 64.76 64.60 64.52 64.52 63.26 62.29 61.52 58.12 56.13 56.46 56.76 61.63 62.34 62.55 61.66 61.11 61.02 60.67
66.68 66.77 64.94 66.46 67.74 67.00 66.42 65.79 65.77 67.97 68.81 69.11 69.23 69.17 69.14 69.00 68.38 68.15 67.75 67.48 67.00 66.34 65.62 64.94 64.27 64.00 64.03 63.55 63.50 62.92 61.28 60.89 55.52 56.30 57.53 56.74 61.98 61.96 61.89 61.52 60.79 60.39 60.18
65.66 66.10 65.81 65.80 66.01 64.54 64.47 64.71 65.23 67.42 67.60 67.91 68.45 68.27 68.03 68.13 67.74 67.31 66.70 66.73 66.22 65.69 65.09 64.48 63.38 63.28 63.08 62.45 62.74 61.99 61.30 60.07 54.86 55.60 56.48 58.98 61.96 61.64 61.13 60.95 60.51 59.88 59.50
63.04 64.37 64.97 63.92 62.92 62.89 62.79 62.98 64.51 67.19 66.86 66.91 67.15 67.02 65.99 66.28 65.76 64.54 65.40 65.59 65.69 65.00 64.33 63.71 63.04 62.07 60.12 61.34 61.69 61.19 59.38 56.07 56.38 56.39 56.93 62.66 61.80 61.27 61.07 60.39 60.14 59.42 59.09
60.22 61.25 62.77 62.89 61.77 60.55 61.02 63.32 65.17 65.39 63.99 63.47 62.27 62.84 62.73 63.25 63.62 64.09 64.57 64.53 64.21 63.80 63.35 62.78 62.00 61.02 57.74 53.25 53.78 57.91 54.89 56.31 56.71 57.06 58.13 62.69 62.04 61.27 60.74 60.23 59.46 58.84 58.63
59.89 60.28 60.96 61.49 61.44 60.39 59.66 60.79 64.38 62.97 61.56 59.75 59.71 60.54 62.48 62.86 62.15 62.36 61.94 61.53 61.27 61.60 59.55 58.77 56.82 54.94 55.77 53.23 51.65 51.40 52.77 53.71 54.07 55.84 60.00 62.64 62.06 61.49 60.77 60.33 59.65 59.34 58.71
59.21 58.97 59.47 60.44 60.51 60.46 62.51 63.67 62.73 61.37 60.19 59.61 59.96 60.32 60.53 60.12 59.40 59.69 59.80 59.64 58.84 57.45 56.32 55.01 54.12 55.40 54.34 53.71 52.15 49.10 50.18 49.84 50.58 52.19 57.27 60.59 62.28 61.45 61.26 59.83 60.02 59.46 58.74
57.35 57.44 57.94 58.61 58.52 58.60 57.92 60.57 61.26 60.45 60.00 60.51 60.61 60.01 59.42 57.80 57.59 58.27 58.39 57.41 56.66 56.27 53.60 54.08 55.25 55.04 53.14 52.98 51.07 49.45 47.95 48.46 48.30 49.39 50.08 58.15 59.71 60.89 61.23 61.17 60.74 59.85 58.77
56.53 56.52 57.45 57.49 57.36 58.12 56.51 57.93 59.81 59.84 59.29 60.60 60.66 60.18 59.05 57.88 57.87 57.54 57.31 56.41 55.90 56.26 54.45 55.31 55.33 54.20 53.13 51.62 49.20 48.34 47.78 48.16 48.61 47.80 48.62 50.51 56.49 57.58 58.31 59.40 60.98 60.65 59.46
56.35 56.58 56.70 56.27 57.58 57.14 56.27 56.84 58.24 58.61 58.83 59.47 59.40 60.69 59.82 59.48 58.80 58.05 58.54 58.62 57.65 56.98 56.27 56.40 55.38 54.52 52.92 52.55 49.38 48.01 47.52 46.82 48.16 48.18 47.42 48.70 52.27 56.32 57.84 59.02 58.47 60.18 59.82
55.55 55.59 56.30 57.35 56.72 56.22 55.61 55.80 56.95 57.51 58.85 58.46 58.11 59.87 60.36 61.07 60.19 59.66 59.68 60.11 59.83 58.93 57.21 55.90 55.29 54.21 52.39 51.50 48.29 46.87 46.63 46.74 46.31 46.30 48.36 48.77 49.00 52.38 55.92 58.73 60.68 60.70 59.60
54.94 54.74 54.92 55.71 55.27 55.71 56.16 55.65 56.38 56.65 57.43 58.33 57.47 59.35 59.79 60.53 61.29 59.76 59.85 59.29 59.25 58.10 56.83 56.72 54.75 53.83 51.77 49.99 48.56 46.67 45.86 45.83 45.59 47.55 47.27 48.60 48.01 50.22 50.72 56.44 57.12 56.93 57.60
54.59 54.65 54.57 55.40 55.22 55.77 55.96 55.65 56.03 55.93 56.06 56.81 57.54 57.25 59.16 59.80 59.89 59.86 59.76 59.31 59.16 57.00 55.77 55.16 54.38 53.76 52.51 50.72 50.82 48.53 45.02 45.52 45.05 44.87 45.56 47.45 46.48 49.10 49.92 50.67 50.70 51.05 55.35
54.50 54.34 54.25 54.34 54.96 55.58 54.85 54.03 54.07 53.52 54.20 54.94 56.15 56.89 57.40 59.26 59.55 59.08 60.01 58.94 58.48 57.50 56.51 55.55 54.32 52.94 49.71 48.33 45.55 44.39 44.86 45.38 45.00 44.48 44.24 44.57 45.24 47.67 47.62 47.86 47.33 46.23 48.02
52.96 53.59 53.98 53.51 54.30 55.10 55.36 54.57 53.71 53.27 52.83 54.96 55.80 56.35 57.11 58.52 59.77 59.84 59.57 59.01 58.32 57.18 56.03 55.17 53.49 50.20 49.72 46.46 45.45 46.00 45.37 45.71 45.74 45.91 44.26 44.61 43.07 43.63 44.25 45.84 44.60 43.92 43.02
52.16 52.22 53.23 53.22 53.21 53.89 55.13 54.06 51.23 51.59 54.46 54.29 55.23 55.49 56.49 58.14 59.49 59.96 59.75 58.73 57.56 56.92 56.18 54.82 53.03 51.37 50.21 48.86 48.20 47.79 44.05 42.84 41.35 43.21 44.91 44.37 43.64 42.70 42.92 43.01 43.13 43.04 43.20
52.40 52.71 53.22 53.60 53.05 53.20 54.28 54.72 51.39 51.70 51.78 54.57 55.11 55.83 56.18 58.16 59.69 60.52 60.48 58.85 57.75 57.88 56.39 55.51 54.32 52.20 52.52 49.43 47.80 48.70 47.32 46.29 42.58 41.58 44.86 44.69 44.97 44.54 42.30 42.15 42.68 42.38 41.83
53.23 52.40 52.76 52.69 53.32 53.46 53.46 56.25 53.75 51.75 53.77 55.84 55.04 53.68 55.61 58.31 59.91 60.54 60.14 58.78 58.15 58.18 58.45 56.71 55.05 53.04 52.55 50.21 48.70 46.72 47.45 46.69 45.90 43.10 40.29 41.69 44.66 44.93 43.77 42.32 43.62 41.72 42.27
52.74 52.33 51.96 51.60 52.79 53.56 53.27 55.47 54.99 53.23 53.94 55.25 54.66 53.51 54.65 58.10 59.17 59.81 60.47 59.39 58.39 58.38 58.04 57.85 55.95 54.46 51.84 50.19 49.72 48.83 47.85 46.40 45.85 44.79 41.73 41.51 41.17 41.75 43.93 44.96 43.86 42.33 41.31
MSLP
1011.77 1012.00 1012.93 1013.49 1013.54 1013.33 1013.21 1013.50 1013.26 1012.99 1013.14 1014.07 1014.22 1014.80 1015.38 1015.91 1016.49 1016.94 1017.47 1017.68 1018.23 1018.38 1018.76 1018.98 1019.32 1019.45 1019.61 1019.82 1019.82 1020.02 1020.10 1020.28 1020.17 1020.40 1020.58 1020.54 1020.70 1020.72 1020.84 1020.72 1020.58 1020.54 1020.39
1011.23 1012.35 1012.27 1013.65 1013.76 1013.70 1013.78 1013.94 1014.36 1013.93 1013.57 1014.10 1014.62 1015.04 1015.63 1016.10 1016.58 1016.99 1017.44 1018.04 1018.48 1018.89 1019.16 1019.33 1019.55 1019.77 1020.13 1020.46 1020.49 1020.52 1020.59 1020.78 1020.76 1020.79 1020.82 1021.03 1021.18 1021.29 1021.33 1021.30 1021.17 1021.04 1020.92
1012.22 1011.46 1011.70 1013.71 1014.02 1013.73 1013.85 1013.99 1014.27 1014.31 1014.03 1014.43 1014.83 1015.23 1015.68 1016.17 1016.73 1017.21 1017.89 1018.40 1018.78 1019.06 1019.44 1019.69 1019.97 1020.24 1020.43 1020.92 1020.68 1020.70 1021.00 1021.14 1021.40 1021.38 1021.47 1021.80 1021.67 1021.69 1021.97 1021.82 1021.68 1021.70 1021.68
1012.94 1012.31 1011.38 1011.45 1012.86 1014.47 1014.25 1014.36 1014.38 1014.40 1014.58 1014.85 1015.17 1015.58 1015.84 1016.41 1016.91 1017.39 1018.12 1018.73 1019.11 1019.41 1019.78 1020.16 1020.47 1020.60 1020.89 1021.01 1020.91 1021.02 1021.45 1021.60 1021.92 1021.97 1022.20 1022.30 1022.29 1022.36 1022.38 1022.39 1022.45 1022.49 1022.58
1012.09 1012.41 1012.46 1012.57 1012.57 1012.84 1014.20 1014.60 1014.90 1014.79 1015.03 1015.17 1015.49 1016.01 1016.17 1016.78 1017.30 1017.66 1018.24 1018.88 1019.27 1019.60 1020.13 1020.62 1020.73 1021.08 1021.21 1021.14 1021.21 1021.42 1021.83 1021.95 1022.31 1022.48 1022.80 1023.00 1022.84 1022.97 1022.94 1023.03 1023.05 1023.15 1023.20
1011.82 1012.29 1012.82 1012.43 1011.98 1013.06 1013.44 1014.26 1014.99 1015.16 1015.50 1015.67 1016.10 1016.36 1016.73 1017.32 1017.73 1017.95 1018.39 1018.84 1019.40 1019.95 1020.38 1020.72 1021.05 1021.29 1021.19 1021.30 1021.82 1022.11 1022.20 1022.41 1022.66 1023.04 1023.17 1023.37 1023.33 1023.38 1023.37 1023.60 1023.75 1023.65 1023.75
1011.71 1012.12 1012.65 1012.65 1012.70 1013.54 1013.75 1014.34 1015.05 1015.64 1015.78 1015.89 1016.66 1016.54 1017.00 1017.80 1018.26 1018.16 1018.54 1019.10 1019.86 1020.23 1020.68 1020.90 1021.29 1021.58 1021.53 1021.77 1022.11 1022.58 1022.71 1022.85 1023.09 1023.52 1023.61 1023.76 1023.86 1023.84 1023.86 1023.98 1024.25 1024.47 1024.54
1010.04 1012.00 1012.30 1012.84 1013.25 1013.50 1013.26 1015.58 1015.83 1016.17 1016.17 1016.43 1016.75 1017.18 1017.14 1018.18 1018.57 1018.79 1018.93 1019.49 1020.11 1020.72 1021.10 1021.33 1021.72 1022.05 1022.02 1022.29 1022.45 1022.94 1023.05 1023.25 1023.49 1023.80 1023.83 1024.04 1024.10 1024.28 1024.36 1024.67 1024.76 1025.00 1025.12
1011.22 1011.79 1012.74 1013.02 1013.78 1014.26 1015.28 1015.89 1016.80 1017.59 1017.18 1017.00 1017.35 1017.55 1017.51 1018.57 1018.80 1019.29 1019.54 1019.90 1020.42 1020.90 1021.29 1021.62 1021.87 1022.25 1022.54 1022.70 1022.64 1022.97 1023.36 1023.68 1023.81 1024.02 1023.98 1024.28 1024.38 1024.48 1024.76 1025.03 1025.31 1025.68 1025.76
1011.84 1012.54 1012.95 1013.43 1014.22 1014.79 1015.52 1016.10 1017.05 1017.65 1017.86 1017.52 1017.99 1017.90 1018.12 1018.92 1019.25 1019.56 1020.01 1020.37 1020.83 1021.13 1021.46 1021.76 1022.03 1022.37 1022.53 1022.90 1022.86 1023.29 1023.63 1024.01 1024.21 1024.33 1024.46 1024.47 1024.61 1024.85 1025.17 1025.37 1025.66 1026.01 1026.17
1010.78 1012.63 1013.37 1014.33 1014.73 1015.52 1015.82 1016.94 1018.07 1017.95 1018.03 1018.02 1018.33 1017.94 1018.52 1019.38 1019.78 1020.07 1020.08 1020.59 1021.23 1021.45 1021.70 1022.02 1022.44 1022.69 1022.79 1023.28 1023.48 1023.64 1023.92 1024.38 1024.45 1024.73 1024.78 1024.74 1024.87 1025.14 1025.48 1025.77 1026.13 1026.43 1026.59
1012.77 1013.38 1013.90 1014.35 1015.24 1015.75 1016.88 1017.14 1017.48 1017.66 1018.28 1018.62 1018.41 1018.42 1018.88 1019.68 1019.95 1020.29 1020.81 1021.06 1021.60 1021.69 1022.09 1022.45 1022.81 1023.07 1023.32 1023.80 1023.94 1024.05 1024.43 1024.63 1024.81 1025.07 1025.01 1025.05 1025.25 1025.48 1025.78 1026.15 1026.46 1026.64 1026.88
1013.34 1013.82 1014.10 1014.31 1015.05 1016.03 1016.55 1017.18 1017.40 1017.62 1018.14 1018.00 1018.32 1018.86 1019.33 1019.72 1020.12 1020.68 1020.89 1021.51 1021.77 1022.22 1022.55 1022.77 1023.23 1023.42 1023.76 1024.16 1024.30 1024.42 1024.64 1024.96 1025.22 1025.27 1025.10 1025.12 1025.30 1025.70 1025.84 1026.19 1026.50 1026.78 1027.16
1014.00 1014.43 1014.67 1015.18 1015.61 1016.05 1016.37 1016.25 1016.98 1017.08 1017.17 1017.80 1018.43 1019.32 1019.62 1019.90 1019.96 1020.46 1021.01 1021.74 1021.66 1022.46 1022.97 1023.15 1023.44 1023.69 1023.94 1024.22 1024.38 1024.62 1024.92 1025.24 1025.43 1025.45 1025.39 1025.43 1025.51 1025.73 1025.93 1026.23 1026.44 1026.82 1027.12
1014.40 1014.82 1015.03 1015.23 1015.71 1016.08 1016.38 1016.43 1016.86 1016.93 1017.26 1017.95 1018.69 1019.24 1019.53 1019.41 1020.14 1020.55 1021.20 1021.36 1021.97 1022.66 1023.11 1023.35 1023.55 1023.85 1024.17 1024.36 1024.54 1024.67 1025.15 1025.40 1025.51 1025.53 1025.61 1025.71 1025.87 1025.72 1025.71 1026.03 1026.36 1026.69 1027.05
1014.96 1015.28 1015.60 1015.71 1015.72 1015.88 1016.57 1016.95 1016.68 1017.19 1017.49 1018.07 1018.65 1019.02 1019.23 1019.53 1019.85 1020.59 1021.16 1021.55 1022.29 1022.43 1022.88 1023.19 1023.44 1023.89 1024.17 1024.35 1024.66 1024.83 1025.16 1025.40 1025.44 1025.50 1025.71 1026.00 1026.05 1025.91 1025.86 1025.89 1026.12 1026.42 1026.74
1015.14 1015.42 1015.81 1015.97 1015.95 1016.17 1016.83 1017.31 1017.16 1017.37 1017.48 1018.05 1018.46 1019.14 1019.66 1019.44 1019.64 1020.53 1021.25 1021.81 1022.26 1022.38 1022.78 1023.09 1023.41 1023.81 1024.16 1024.41 1024.56 1024.93 1025.03 1025.30 1025.32 1025.66 1026.02 1026.09 1026.03 1025.93 1025.89 1026.02 1026.11 1026.21 1026.60
1015.61 1015.74 1016.02 1016.24 1016.32 1016.59 1017.17 1017.33 1017.48 1017.68 1017.86 1017.91 1018.33 1018.92 1018.91 1019.06 1019.58 1020.56 1021.22 1021.81 1022.01 1022.38 1022.65 1022.94 1023.40 1023.87 1024.14 1024.50 1024.90 1025.11 1025.20 1025.15 1025.41 1025.73 1025.90 1025.86 1025.86 1025.99 1026.07 1025.97 1025.90 1026.10 1026.55
1015.74 1015.95 1016.33 1016.65 1016.81 1016.85 1017.29 1017.51 1017.57 1017.75 1017.77 1018.18 1018.09 1018.30 1018.81 1019.01 1019.84 1020.53 1021.06 1021.34 1021.85 1022.27 1022.32 1022.67 1023.35 1023.37 1024.14 1024.54 1024.87 1025.15 1025.29 1025.45 1025.50 1025.37 1025.48 1025.67 1025.80 1025.93 1026.08 1026.04 1026.09 1026.17 1026.44
1016.03 1016.41 1016.72 1016.92 1017.17 1017.49 1017.59 1017.44 1017.68 1017.91 1018.35 1018.37 1018.06 1018.45 1018.56 1019.13 1019.81 1020.16 1020.80 1021.37 1021.60 1022.04 1022.36 1022.56 1022.77 1023.20 1023.81 1024.22 1024.68 1025.00 1025.19 1025.46 1025.44 1025.39 1025.43 1025.50 1025.67 1025.77 1025.95 1026.09 1026.17 1026.24 1026.31
1015.93 1016.18 1016.43 1016.83 1017.28 1017.52 1017.74 1017.95 1018.04 1018.20 1018.33 1018.49 1018.09 1018.13 1018.49 1019.00 1019.53 1019.86 1020.44 1020.95 1021.44 1021.97 1022.08 1022.16 1022.59 1023.14 1023.71 1024.18 1024.81 1025.30 1025.38 1025.34 1025.51 1025.42 1025.44 1025.47 1025.55 1025.62 1025.91 1025.94 1026.01 1026.16 1026.26
1015.72 1016.07 1016.36 1016.74 1017.16 1017.54 1017.77 1017.94 1018.07 1018.28 1018.24 1018.15 1018.29 1018.31 1018.56 1018.93 1019.08 1019.46 1019.93 1020.40 1020.67 1021.36 1021.73 1021.97 1022.24 1023.02 1023.52 1023.94 1024.63 1025.17 1025.43 1025.51 1025.25 1025.34 1025.50 1025.43 1025.38 1025.50 1025.56 1025.77 1025.88 1026.00 1026.18
1015.60 1016.03 1016.59 1017.10 1017.41 1017.64 1017.95 1018.35 1018.33 1018.45 1018.47 1018.32 1018.20 1018.36 1018.51 1018.73 1019.03 1019.33 1019.71 1020.17 1020.66 1020.94 1021.31 1021.61 1021.93 1022.25 1023.05 1023.58 1023.74 1024.14 1025.22 1025.19 1025.27 1025.27 1025.30 1025.32 1025.37 1025.50 1025.28 1025.35 1025.57 1025.78 1025.88
1015.53 1016.16 1016.44 1016.78 1017.02 1017.30 1017.65 1017.85 1017.98 1017.84 1017.90 1017.98 1018.17 1018.23 1018.24 1018.34 1018.50 1018.60 1018.93 1019.44 1020.07 1020.49 1020.70 1020.99 1021.35 1021.82 1022.36 1023.18 1023.81 1023.82 1023.98 1024.24 1025.10 1025.43 1025.21 1025.12 1025.12 1025.19 1025.15 1025.28 1025.36 1025.44 1025.50
1014.99 1015.59 1015.96 1016.20 1016.45 1016.72 1016.99 1017.02 1017.23 1017.53 1017.57 1017.67 1017.79 1017.82 1017.80 1017.78 1017.88 1018.16 1018.45 1018.84 1019.20 1019.34 1019.93 1020.51 1020.89 1021.29 1021.81 1022.51 1022.94 1023.90 1024.51 1024.69 1024.92 1025.46 1025.27 1025.02 1024.95 1024.94 1025.00 1025.12 1025.17 1025.42 1025.20
1014.17 1014.80 1015.32 1015.64 1015.94 1016.32 1016.62 1016.77 1016.97 1017.16 1017.30 1017.42 1017.31 1017.46 1017.45 1017.42 1017.54 1017.56 1017.57 1018.07 1018.74 1019.26 1019.41 1020.19 1020.53 1021.05 1021.62 1021.90 1022.39 1022.87 1023.55 1024.30 1024.86 1025.04 1025.60 1025.36 1025.48 1025.01 1024.65 1024.45 1024.76 1024.99 1024.93
Wind_Speed
8 11 12 10 11 11 15 15 18 23 26 25 26 26 26 26 25 25 24 24 22 22 24 25 23 24 25 25 25 24 23 22 22 21 21 23 22 22 23 22 20 16 23
10 12 19 7 13 13 14 16 16 20 24 25 25 25 26 26 25 25 24 23 22 22 24 24 25 25 24 23 21 23 21 21 20 20 21 23 23 22 22 22 21 19 23
5 19 25 9 4 15 16 18 19 21 23 24 25 25 26 26 25 24 23 22 21 21 24 24 24 22 20 17 13 11 17 19 20 20 18 8 12 22 21 21 21 22 22
5 11 13 31 25 12 16 17 19 21 22 23 24 25 26 26 25 24 23 21 20 20 22 22 21 20 17 16 17 22 21 21 19 18 9 9 12 20 21 21 21 21 21
7 6 14 26 24 20 16 18 19 21 22 23 24 24 26 26 26 24 23 21 20 20 21 20 19 17 13 14 20 23 22 22 19 13 8 6 7 16 20 20 20 20 20
11 7 8 15 25 27 24 25 21 21 21 22 23 24 25 25 25 24 22 21 19 19 19 18 17 14 15 17 21 19 19 21 17 8 7 11 8 19 20 19 19 19 21
8 8 13 20 19 23 20 17 20 20 21 22 22 24 24 24 22 23 22 20 18 17 17 16 15 14 16 19 20 18 17 18 11 7 7 7 9 18 18 19 19 19 19
14 7 7 16 22 22 23 18 7 17 19 20 21 22 24 22 21 21 21 19 17 14 13 13 12 13 15 18 18 17 16 16 10 8 7 6 16 18 19 18 18 18 18
12 12 12 12 15 14 22 25 7 9 14 17 18 20 22 19 20 20 19 18 16 14 12 12 11 11 14 14 14 18 16 12 7 6 8 4 16 17 17 17 17 16 17
10 13 14 12 12 17 17 24 18 10 13 17 17 18 19 19 19 19 18 17 15 14 11 10 10 11 14 19 20 18 15 12 6 6 4 6 15 15 15 15 15 15 16
10 11 14 16 15 15 17 18 17 17 14 16 16 20 15 9 12 13 16 16 14 12 11 9 11 12 12 15 15 14 11 4 5 4 3 12 13 14 14 13 13 13 14
10 10 12 17 18 20 13 12 12 13 8 8 8 10 8 8 8 9 10 13 12 12 11 9 10 11 9 5 5 10 4 5 4 4 3 10 12 12 12 12 11 11 12
12 10 12 15 15 14 15 12 7 7 7 6 9 8 10 8 7 6 6 5 5 7 3 5 4 4 3 4 4 4 5 5 2 2 5 9 9 10 11 11 11 11 10
9 11 12 10 10 9 9 9 8 8 7 7 8 8 8 6 8 7 5 5 6 3 5 3 3 3 5 5 6 6 6 4 3 2 3 8 6 9 10 8 10 10 10
9 9 9 8 7 7 6 5 7 8 8 7 8 8 8 8 7 6 5 4 4 4 4 4 3 4 5 5 4 7 5 6 5 3 2 5 5 6 9 10 10 10 10
9 10 8 8 7 8 6 2 7 7 6 7 8 7 6 7 7 6 4 5 4 4 4 4 5 5 5 5 5 4 6 5 5 5 3 2 6 5 5 5 10 11 10
7 10 9 8 8 10 8 4 4 4 6 8 5 6 7 7 7 6 4 4 4 4 6 4 3 3 4 3 5 5 5 6 5 5 4 3 3 5 4 2 6 10 11
8 10 9 8 8 9 6 6 4 4 2 5 5 5 6 7 7 5 5 5 4 4 4 4 4 4 4 4 3 4 4 4 6 6 5 4 4 3 4 5 5 7 10
10 11 8 9 9 8 5 4 4 4 3 2 4 4 6 6 6 6 4 5 6 5 5 6 3 4 4 3 4 4 4 4 5 3 6 5 6 5 4 6 9 9 8
10 10 11 9 8 7 4 4 1 3 0 4 3 4 4 4 5 5 4 4 4 4 4 4 4 2 3 4 4 4 2 3 3 4 5 4 5 6 5 5 4 5 9
11 11 12 11 10 8 7 7 4 4 3 2 3 3 4 4 6 5 4 6 6 6 6 6 4 5 3 3 4 2 2 3 4 3 4 5 6 6 6 5 4 4 4
11 13 13 12 12 9 8 8 4 3 3 3 3 5 6 7 7 6 6 6 7 5 6 6 5 3 3 4 4 2 2 3 2 4 3 4 6 4 5 6 6 5 5
14 14 14 13 14 10 8 6 2 1 2 2 3 3 4 6 6 7 7 5 6 5 6 5 6 8 5 4 3 4 2 5 1 1 4 4 5 5 5 6 6 6 6
16 13 14 14 14 12 10 10 12 10 10 8 4 4 6 8 9 9 9 8 8 6 6 6 5 5 4 5 1 1 1 4 3 1 1 3 5 6 5 4 5 6 6
15 15 15 15 16 16 13 12 10 9 8 7 4 7 9 7 9 11 9 8 8 8 8 7 6 6 3 4 4 3 3 4 2 1 2 4 1 3 3 4 4 4 5
15 15 15 17 19 18 14 14 14 14 13 9 8 7 7 7 6 9 9 7 4 5 7 6 4 6 6 4 4 4 4 5 3 2 3 3 2 4 2 3 3 5 5
Wind_Direction
122 125 112 114 115 107 112 108 110 112 113 114 114 115 115 114 113 110 107 103 105 107 108 106 100 95 95 95 97 94 90 87 85 85 84 79 78 78 73 70 70 70 70
129 137 116 135 129 118 112 113 113 112 114 115 117 117 116 115 114 110 107 108 109 111 111 106 101 100 100 102 103 98 89 87 81 76 74 80 82 76 72 70 71 73 75
87 157 149 151 134 130 131 130 129 123 119 121 122 120 118 115 112 109 110 110 112 112 112 109 105 103 102 102 106 99 96 86 80 77 73 73 73 79 76 72 71 72 72
256 209 147 153 161 148 138 138 134 128 127 125 123 121 121 119 118 116 114 113 112 112 113 108 105 101 97 94 84 106 95 87 81 75 63 57 72 77 76 77 76 74 70
172 173 161 149 147 151 151 143 137 132 131 128 128 126 122 123 122 120 118 117 115 113 112 108 102 95 91 84 103 102 103 97 89 80 72 65 76 82 82 79 78 77 77
189 164 222 172 156 166 162 146 139 134 131 129 129 127 123 124 125 122 120 117 115 113 110 104 96 85 69 89 106 103 103 99 91 75 69 78 78 86 85 81 79 80 76
175 164 173 165 159 158 142 124 132 128 129 129 133 130 126 128 126 123 118 115 114 108 104 98 87 76 69 89 107 102 98 98 96 86 76 72 81 84 84 84 79 75 77
128 151 165 180 154 128 107 107 60 118 127 132 134 133 127 126 125 120 118 117 112 105 100 91 84 85 83 88 103 110 107 106 99 97 92 86 90 87 86 84 85 84 83
112 118 109 124 137 131 118 122 116 112 120 126 130 133 125 125 124 120 117 114 113 107 99 93 87 82 84 85 103 120 109 110 105 107 99 86 93 90 91 90 87 85 83
116 111 121 117 120 115 118 119 135 124 117 114 117 114 114 117 119 118 115 114 114 112 104 99 90 77 65 68 97 110 112 102 93 94 92 102 102 98 97 97 96 97 93
99 113 114 121 105 108 116 135 167 132 120 118 118 113 109 117 118 118 125 120 119 117 113 96 75 63 60 67 96 97 99 99 102 96 104 109 108 105 106 105 106 102 100
105 101 124 122 127 129 140 146 160 144 137 137 118 115 112 116 116 114 105 107 122 113 108 91 82 68 47 69 81 100 97 95 95 121 117 122 118 114 114 115 116 111 108
121 118 126 131 130 145 145 169 164 148 144 128 122 113 126 117 114 116 118 119 120 109 89 99 79 62 68 89 80 103 105 100 112 100 120 127 128 131 131 133 130 125 122
137 132 132 140 143 153 172 155 152 148 131 129 131 132 134 135 128 137 131 150 114 131 131 123 111 89 106 110 117 108 117 121 120 113 120 115 127 154 145 148 144 140 136
129 134 141 131 125 127 124 130 145 132 133 133 137 145 155 136 141 137 146 129 133 142 150 152 148 136 128 120 100 110 121 141 142 133 102 130 159 146 172 163 164 159 157
139 142 143 123 116 111 90 118 131 148 138 134 145 159 140 145 144 126 148 144 167 167 160 163 156 155 154 135 119 121 130 151 152 135 135 176 169 151 150 175 183 182 173
133 141 140 127 122 123 119 124 98 109 139 138 122 140 157 139 128 133 153 150 185 181 169 166 154 144 133 143 150 155 152 157 141 152 174 178 131 106 115 151 199 209 189
125 138 141 136 130 126 142 151 130 102 74 134 133 139 139 130 134 167 167 173 196 198 172 156 162 164 159 166 171 195 177 160 166 170 172 165 151 134 118 121 144 159 191
144 138 134 146 149 131 138 182 120 87 49 270 150 127 153 139 151 160 169 169 179 180 164 167 183 144 159 181 194 197 207 187 199 166 160 169 174 160 158 151 142 141 165
157 151 149 150 154 152 160 164 96 43 49 268 191 157 150 171 196 148 159 156 170 155 166 173 158 151 165 177 189 187 197 233 216 183 175 174 190 177 171 180 171 186 195
158 164 164 163 166 163 169 179 197 219 226 180 270 226 201 209 201 172 178 160 159 184 192 183 149 165 178 152 102 27 273 248 243 234 210 178 191 187 187 191 188 194 217
168 175 176 182 179 182 183 188 198 187 245 201 194 224 218 214 209 196 185 186 178 173 190 186 166 134 168 177 149 120 213 311 315 231 223 231 199 183 196 210 197 198 213
184 181 181 184 193 186 181 190 229 176 277 291 275 240 224 219 221 207 188 175 181 183 196 194 180 170 178 187 210 150 137 216 354 333 236 235 210 211 205 204 211 204 202
192 187 186 191 190 198 194 197 204 205 208 220 224 219 217 204 213 206 198 177 187 200 203 198 181 179 152 178 198 142 54 138 168 288 318 247 218 226 219 233 225 217 194
188 188 192 194 196 201 202 207 206 212 218 227 216 219 222 213 205 208 196 185 189 187 208 200 179 188 189 156 150 132 41 22 63 20 222 275 253 273 262 220 230 246 228
189 188 192 194 204 205 207 212 211 214 219 225 228 220 223 221 194 197 194 185 170 217 191 199 201 189 192 140 140 147 149 171 177 165 237 270 241 289 270 240 239 245 234